AJ5TT Weather Reports


time (UTC)temp
C
wind
direction
speed
KPH
gust
KPH
rain 1hr
cm
rain 24hr
cm
rain mn
cm
humidity
%
barometer
mb
20260831071604 25 0 0.0 3.2 0.00 0.00 0.00 89 1016.0
20260831070108 25 0 0.0 0.0 0.00 0.00 0.00 89 1016.1
20260831064609 26 0 0.0 3.2 0.00 0.00 0.00 87 1016.1
20260831063056 26 0 0.0 3.2 0.00 0.00 0.00 85 1016.3
20260831061605 26 0 0.0 3.2 0.00 0.00 0.00 85 1016.3
20260831060116 26 0 0.0 3.2 0.00 0.00 0.00 84 1016.3
20260831054607 26 0 0.0 3.2 0.00 0.00 0.00 84 1016.1
20260831053057 27 207 0.0 4.8 0.00 0.00 0.00 83 1016.2
20260831051601 27 171 0.0 3.2 0.00 0.00 0.00 83 1016.2
20260831050142 27 0 0.0 3.2 0.00 0.00 0.00 83 1016.1
20260831044606 27 194 1.6 3.2 0.00 0.00 0.00 82 1016.0
20260831043105 27 0 0.0 4.8 0.00 0.00 0.00 82 1015.9
20260831041604 27 150 0.0 4.8 0.00 0.00 0.00 81 1016.0
20260831040106 27 0 0.0 3.2 0.00 0.00 0.00 81 1015.9
20260831034607 27 176 0.0 3.2 0.00 0.00 0.00 80 1015.9
20260831033103 27 201 0.0 3.2 0.00 0.00 0.00 80 1015.7
20260831031607 27 181 0.0 4.8 0.00 0.00 0.00 79 1015.7
20260831030107 27 234 1.6 4.8 0.00 0.00 0.00 79 1015.5
20260831024605 28 179 0.0 3.2 0.00 0.00 0.00 78 1015.4
20260831023102 28 0 0.0 0.0 0.00 0.00 0.00 78 1015.1
20260831021607 28 0 0.0 3.2 0.00 0.00 0.00 77 1015.0
20260831020108 28 0 0.0 6.4 0.00 0.00 0.00 77 1014.8
20260831014603 28 168 1.6 6.4 0.00 0.00 0.00 76 1014.7
20260831013059 29 233 1.6 6.4 0.00 0.00 0.00 75 1014.8
20260831011557 29 190 1.6 6.4 0.00 0.00 0.00 74 1014.8
20260831010107 30 0 1.6 6.4 0.00 0.00 0.00 72 1014.8
20260831004614 30 225 1.6 8.0 0.00 0.00 0.00 70 1014.7
20260831003100 30 186 1.6 4.8 0.00 0.00 0.00 69 1014.7
20260831001607 31 252 3.2 9.7 0.00 0.00 0.00 68 1014.7
20260831000106 31 125 4.8 11.3 0.00 0.00 0.00 65 1014.9
20260830234609 32 196 3.2 9.7 0.00 0.00 0.00 63 1014.6
20260830233108 32 155 3.2 11.3 0.00 0.00 0.00 61 1014.6
20260830231608 33 213 4.8 14.5 0.00 0.00 0.00 60 1014.7
20260830230106 33 119 3.2 11.3 0.00 0.00 0.00 57 1014.7
20260830224606 33 123 3.2 9.7 0.00 0.00 0.00 55 1014.8
20260830223054 34 207 1.6 9.7 0.00 0.00 0.00 54 1014.7
20260830221604 35 164 3.2 11.3 0.00 0.00 0.00 54 1014.8
20260830220106 35 185 4.8 12.9 0.00 0.00 0.00 51 1014.6
20260830214559 35 184 3.2 11.3 0.00 0.00 0.00 50 1014.6
20260830213100 36 116 3.2 11.3 0.00 0.00 0.00 49 1014.6
20260830211557 36 212 3.2 8.0 0.00 0.00 0.00 48 1014.8
20260830210107 36 235 3.2 9.7 0.00 0.00 0.00 49 1014.9
20260830204619 36 307 1.6 11.3 0.00 0.00 0.00 50 1015.1
20260830203101 36 115 1.6 6.4 0.00 0.00 0.00 51 1015.1
20260830201611 36 325 4.8 11.3 0.00 0.00 0.00 49 1015.3
20260830200106 36 156 3.2 11.3 0.00 0.00 0.00 52 1015.5
20260830194604 35 236 6.4 12.9 0.00 0.00 0.00 52 1015.6
20260830193059 35 151 1.6 8.0 0.00 0.00 0.00 53 1016.0
20260830191631 35 199 6.4 11.3 0.00 0.00 0.00 54 1016.1
20260830190115 35 217 6.4 9.7 0.00 0.00 0.00 50 1016.3
20260830184559 35 360 1.6 6.4 0.00 0.00 0.00 52 1016.6
20260830183108 34 173 1.6 4.8 0.00 0.00 0.00 57 1016.8
20260830181606 34 261 3.2 9.7 0.00 0.00 0.00 54 1017.2
20260830180116 34 161 3.2 9.7 0.00 0.00 0.00 55 1017.3
20260830174610 34 126 0.0 4.8 0.00 0.00 0.00 58 1017.6
20260830173120 32 296 3.2 9.7 0.00 0.00 0.00 59 1017.7
20260830171608 33 208 4.8 11.3 0.00 0.00 0.00 62 1017.9
20260830170107 32 236 4.8 11.3 0.00 0.00 0.00 62 1018.0
20260830164603 32 0 1.6 6.4 0.00 0.00 0.00 63 1018.0
20260830163054 31 360 3.2 8.0 0.00 0.00 0.00 67 1017.9
20260830161613 31 207 1.6 8.0 0.00 0.00 0.00 70 1018.1
20260830160106 31 234 3.2 8.0 0.00 0.00 0.00 69 1018.0
20260830154610 31 178 1.6 6.4 0.00 0.00 0.00 68 1018.0
20260830153100 30 301 3.2 8.0 0.00 0.00 0.00 72 1018.0
20260830151603 30 281 1.6 4.8 0.00 0.00 0.00 75 1018.1
20260830150108 30 238 1.6 3.2 0.00 0.00 0.00 75 1018.1
20260830144609 29 212 1.6 4.8 0.00 0.00 0.00 76 1018.2
20260830143107 29 276 1.6 6.4 0.00 0.00 0.00 78 1018.2
20260830141558 28 32 0.0 3.2 0.00 0.00 0.00 82 1018.1
20260830140107 28 0 0.0 0.0 0.00 0.00 0.00 84 1018.0
20260830134600 27 0 0.0 0.0 0.00 0.00 0.00 88 1018.0
20260830133108 26 0 0.0 0.0 0.00 0.00 0.00 92 1017.7
20260830131606 25 0 0.0 0.0 0.00 0.00 0.00 94 1017.4
20260830130118 25 0 0.0 0.0 0.00 0.00 0.00 94 1017.5
20260830124601 24 0 0.0 0.0 0.00 0.00 0.00 95 1017.3
20260830123106 23 0 0.0 0.0 0.00 0.00 0.00 94 1017.3
20260830121605 23 0 0.0 0.0 0.00 0.00 0.00 94 1017.3
20260830120120 23 0 0.0 0.0 0.00 0.00 0.00 94 1017.2
20260830114608 23 0 0.0 0.0 0.00 0.00 0.00 94 1017.0
20260830113108 23 0 0.0 0.0 0.00 0.00 0.00 94 1017.2
20260830111606 23 0 0.0 0.0 0.00 0.00 0.00 94 1017.1
20260830110120 23 0 0.0 0.0 0.00 0.00 0.00 94 1016.8
20260830104608 23 0 0.0 0.0 0.00 0.00 0.00 94 1017.0
20260830103108 23 0 0.0 0.0 0.00 0.00 0.00 93 1016.8
20260830101630 23 0 0.0 0.0 0.00 0.00 0.00 93 1016.8
20260830100106 23 0 0.0 0.0 0.00 0.00 0.00 93 1016.6
20260830094557 23 0 0.0 0.0 0.00 0.00 0.00 93 1016.6
20260830093107 24 0 0.0 0.0 0.00 0.00 0.00 93 1016.5
20260830091604 24 0 0.0 0.0 0.00 0.00 0.00 93 1016.6
20260830084606 24 0 0.0 0.0 0.00 0.00 0.00 92 1016.5
20260830083108 24 0 0.0 0.0 0.00 0.00 0.00 92 1016.6
20260830081609 24 0 0.0 0.0 0.00 0.00 0.00 91 1016.6
20260830080105 25 0 0.0 0.0 0.00 0.00 0.00 91 1016.7
20260830074603 25 0 0.0 0.0 0.00 0.00 0.00 89 1016.7
20260830073057 25 0 0.0 3.2 0.00 0.00 0.00 89 1016.7